Temp
-13 -11 -12 -12 -13 -13 -14 -14 -14 -13 -13 -14 -13 -12 -9 -8 -7 -6 -5 -5 -4 -3 -3 -3 -3 -3 -3
-13 -13 -14 -14 -14 -15 -15 -15 -15 -15 -15 -16 -15 -13 -12 -11 -9 -9 -7 -6 -5 -4 -3 -3 -2 -2 -2
-15 -15 -15 -15 -15 -15 -15 -15 -15 -15 -15 -15 -15 -15 -14 -12 -12 -10 -10 -8 -5 -4 -4 -4 -3 -2 -2
-17 -16 -16 -15 -16 -16 -15 -15 -14 -15 -15 -15 -15 -15 -14 -13 -12 -11 -11 -9 -8 -5 -5 -4 -3 -3 -2
-17 -17 -16 -16 -16 -16 -16 -15 -14 -15 -15 -15 -15 -15 -14 -14 -14 -13 -12 -11 -10 -8 -6 -5 -5 -3 -3
-18 -18 -17 -17 -16 -16 -16 -16 -15 -15 -16 -15 -15 -15 -14 -14 -13 -13 -12 -12 -11 -10 -10 -8 -6 -4 -3
-18 -17 -18 -17 -17 -16 -16 -16 -16 -15 -16 -15 -16 -15 -15 -14 -13 -12 -12 -11 -11 -10 -10 -10 -8 -6 -4
-18 -17 -17 -17 -17 -17 -16 -16 -16 -15 -16 -16 -15 -14 -14 -13 -13 -13 -12 -10 -10 -10 -10 -9 -8 -6 -4
-17 -17 -17 -17 -17 -17 -16 -16 -15 -15 -15 -15 -14 -14 -14 -12 -12 -11 -11 -10 -10 -10 -9 -9 -8 -6 -4
-16 -16 -17 -17 -17 -17 -16 -16 -15 -15 -14 -15 -14 -14 -12 -12 -12 -11 -10 -9 -9 -9 -8 -8 -8 -7 -5
-16 -16 -16 -16 -16 -16 -16 -16 -15 -15 -15 -15 -13 -13 -13 -11 -11 -11 -10 -9 -9 -8 -8 -8 -7 -6 -6
-17 -16 -16 -16 -15 -16 -16 -16 -16 -16 -15 -15 -14 -13 -13 -11 -11 -10 -9 -9 -8 -8 -8 -8 -7 -6 -5
-17 -16 -16 -16 -17 -17 -16 -16 -16 -16 -15 -15 -15 -14 -14 -12 -11 -10 -10 -9 -8 -8 -8 -7 -7 -7 -6
-17 -17 -17 -17 -17 -17 -17 -17 -16 -16 -16 -15 -15 -15 -14 -13 -11 -11 -10 -9 -9 -9 -8 -8 -7 -6 -5
-17 -17 -17 -17 -17 -17 -17 -16 -16 -16 -15 -15 -14 -14 -14 -13 -12 -11 -10 -10 -10 -9 -9 -8 -8 -7 -5
-17 -17 -17 -17 -17 -16 -16 -16 -16 -15 -15 -14 -14 -14 -14 -13 -13 -12 -11 -11 -10 -10 -9 -9 -8 -8 -8
-17 -17 -17 -16 -16 -16 -16 -16 -15 -15 -14 -15 -15 -14 -14 -13 -13 -12 -12 -12 -11 -10 -10 -9 -8 -8 -8
Height
2848 2844 2837 2831 2825 2821 2815 2810 2806 2802 2799 2795 2791 2790 2789 2790 2791 2795 2798 2800 2802 2808 2813 2816 2818 2824 2826
2836 2831 2826 2820 2813 2807 2803 2799 2794 2789 2786 2782 2778 2776 2773 2773 2776 2777 2781 2784 2788 2792 2798 2804 2807 2809 2812
2823 2820 2814 2810 2803 2797 2791 2785 2780 2776 2772 2768 2764 2762 2761 2759 2760 2762 2764 2766 2771 2777 2783 2789 2794 2799 2804
2816 2810 2805 2801 2793 2785 2776 2773 2766 2762 2758 2755 2752 2750 2748 2746 2745 2746 2748 2750 2755 2761 2768 2775 2780 2788 2794
2807 2800 2794 2789 2782 2774 2765 2757 2752 2750 2745 2741 2739 2737 2736 2734 2733 2733 2734 2735 2739 2744 2750 2760 2767 2774 2781
2798 2789 2782 2776 2768 2761 2753 2746 2735 2742 2733 2729 2730 2724 2724 2723 2722 2721 2721 2721 2723 2728 2734 2740 2750 2758 2767
2786 2779 2770 2765 2757 2749 2743 2737 2730 2727 2724 2716 2717 2713 2712 2710 2709 2707 2707 2707 2709 2713 2718 2724 2731 2740 2750
2777 2767 2760 2755 2748 2741 2733 2726 2721 2718 2716 2706 2707 2701 2699 2697 2696 2694 2693 2695 2697 2698 2700 2706 2712 2721 2733
2765 2758 2752 2746 2740 2732 2726 2718 2710 2707 2708 2700 2696 2690 2687 2685 2685 2684 2685 2686 2687 2690 2692 2696 2702 2709 2718
2755 2749 2744 2738 2733 2727 2720 2711 2704 2696 2700 2692 2687 2683 2676 2676 2677 2677 2677 2679 2681 2683 2687 2690 2696 2701 2709
2746 2740 2735 2730 2725 2719 2713 2706 2696 2689 2689 2684 2679 2676 2673 2667 2670 2672 2673 2675 2677 2679 2682 2686 2691 2697 2705
2739 2733 2727 2722 2716 2709 2703 2697 2692 2683 2679 2677 2672 2671 2667 2664 2666 2668 2670 2672 2673 2678 2681 2685 2689 2694 2699
2733 2728 2722 2714 2706 2700 2695 2688 2683 2679 2675 2671 2667 2665 2663 2661 2663 2665 2668 2672 2675 2677 2680 2684 2687 2692 2696
2729 2722 2714 2708 2701 2694 2688 2682 2677 2673 2669 2666 2663 2660 2659 2659 2661 2664 2667 2672 2676 2680 2681 2682 2686 2691 2696
2724 2717 2711 2704 2698 2692 2686 2680 2675 2670 2667 2663 2660 2658 2656 2656 2659 2663 2668 2674 2679 2682 2684 2686 2689 2693 2697
2721 2715 2708 2702 2696 2691 2686 2681 2677 2672 2668 2663 2659 2656 2655 2657 2660 2665 2670 2675 2681 2685 2688 2692 2695 2701 2706
2720 2714 2708 2703 2697 2692 2688 2684 2681 2677 2672 2667 2662 2659 2659 2661 2664 2669 2675 2680 2685 2688 2692 2695 2699 2703 2708
Wind_Speed
55 52 50 49 51 48 47 45 47 46 47 45 46 47 55 56 55 54 52 53 53 48 45 41 40 37 41
50 47 47 46 47 48 49 49 49 47 46 43 43 41 40 43 48 47 49 48 50 49 44 43 40 41 37
47 45 43 42 47 49 51 52 51 48 46 44 40 38 35 31 34 36 36 39 50 48 46 44 42 41 41
43 43 44 45 48 54 58 53 52 49 47 43 39 37 36 35 33 31 34 42 46 53 49 47 46 44 42
45 46 46 51 55 56 56 54 51 46 40 36 35 38 36 36 36 36 36 40 44 44 49 49 51 48 46
49 50 56 57 55 51 51 49 51 37 41 38 31 35 35 36 34 36 38 43 43 42 41 40 47 49 47
52 56 61 54 50 49 46 45 46 43 41 41 34 33 31 33 32 33 34 35 42 44 45 44 47 50 50
54 54 51 46 43 43 44 44 44 42 39 43 38 39 38 35 30 27 28 32 35 40 46 50 48 48 47
46 45 41 37 37 39 40 43 46 44 38 42 41 42 42 31 24 23 25 28 29 33 37 41 44 46 48
40 37 36 35 35 36 39 43 46 49 39 43 42 41 39 28 17 15 18 18 26 33 33 32 35 37 41
38 37 36 36 36 37 38 41 45 47 41 40 40 38 34 31 18 10 13 13 11 14 18 21 25 30 31
37 37 38 40 41 40 36 34 35 39 37 32 34 30 29 28 18 6 13 13 16 14 14 15 17 18 24
37 39 41 40 35 32 29 28 27 26 26 25 24 23 24 22 13 6 15 14 11 3 5 16 19 17 14
40 41 35 31 28 26 26 24 22 18 17 17 16 17 17 15 9 10 18 17 14 4 4 3 13 18 15
34 31 28 26 24 22 21 21 20 18 15 13 12 11 11 7 8 15 21 19 14 5 1 5 14 22 28
26 25 25 23 22 19 17 18 16 15 14 12 10 5 3 8 11 18 21 19 15 9 8 14 21 24 30
22 22 22 20 18 17 18 16 13 11 15 17 16 13 12 13 15 18 20 18 14 11 10 12 18 23 25
Wind_Direction
304 307 303 301 299 299 298 297 298 296 297 297 294 279 269 264 263 260 257 256 258 255 256 258 267 271 273
304 303 301 301 300 298 297 298 297 295 293 291 294 285 278 270 264 267 260 255 254 254 254 255 257 262 267
301 300 299 298 298 295 297 299 298 295 293 289 287 284 285 277 278 272 271 266 257 253 255 253 254 256 258
299 298 295 297 294 296 299 299 298 296 292 291 283 276 274 268 261 258 255 255 257 257 252 251 250 249 251
300 297 298 298 297 300 300 300 299 299 299 291 283 276 276 274 268 263 257 256 254 255 257 252 248 246 245
299 294 302 305 308 303 301 302 303 304 300 298 289 278 276 275 274 271 266 260 256 248 239 241 237 239 240
295 298 302 307 306 305 304 302 300 302 301 298 298 292 287 286 282 275 269 263 260 253 246 240 232 231 235
298 301 306 308 304 304 303 303 302 303 304 299 303 299 299 295 286 275 258 254 257 249 243 241 237 228 225
305 307 308 307 307 306 306 305 303 303 306 301 303 301 301 301 293 272 259 258 248 244 252 244 234 226 222
313 312 312 313 310 306 306 303 301 300 303 299 299 301 305 307 295 262 241 239 248 249 251 254 243 237 225
316 317 317 313 310 308 305 300 297 296 302 300 299 301 301 305 304 256 226 215 219 237 243 243 239 234 228
318 319 318 316 313 311 306 301 296 298 302 298 296 297 296 299 304 248 203 206 178 199 228 224 225 221 226
321 321 319 318 318 316 312 310 305 301 295 292 291 291 290 290 292 228 196 194 167 247 246 209 217 225 218
321 322 324 326 328 329 328 326 321 317 310 300 293 291 287 281 265 200 186 184 176 177 333 32 174 186 183
325 329 331 334 339 338 338 345 339 337 332 317 310 298 285 257 203 185 177 174 167 183 250 177 171 188 188
335 337 341 344 347 353 356 357 359 7 9 360 345 327 150 144 159 166 164 152 152 158 159 172 157 157 163
345 353 354 358 4 13 14 13 14 30 43 35 50 68 102 120 134 148 153 142 147 161 157 147 164 159 161